[[{"header":{"parameterUnit":"m.s-1","parameterCategory":1,"la1":30.2991,"la2":30.254,"lo1":-89.0895,"lo2":-89.0444,"dy":0.0017,"dx":0.0017,"nx":28,"ny":28,"refTime":"2025-03-21T09:00:00:Z","depth":0,"parameterNumber":2,"parameterNumberName":"U-component_of_WINDS"},"data":[0,0,0,0,0,0,0,0,0,0,0,0,0,0,0,0,0,0,0,0,0,0,0,0,0,0,0,0,0,0,0,0,0,0,0,0,0,0,0,0,0,0,0,0,0,0,0,0,0,0,0,0,0,0,0,0,0,0,-0.2119,-0.2119,0,-0.2168,-0.2169,-0.2169,-0.2147,-0.2145,-0.2144,-0.2143,-0.2197,-0.2199,-0.2202,0,0,0,0,0,0,0,0,0,0,0,0,0,-0.2007,-0.2009,-0.2119,-0.2119,-0.212,-0.2168,-0.2169,-0.2169,-0.2147,-0.2145,-0.2144,-0.2142,-0.2196,-0.2199,-0.2202,0,0,0,0,0,0,0,0,0,0,0,0,0,-0.2056,-0.201,-0.2119,-0.2115,-0.2115,-0.2168,-0.2169,-0.217,-0.2147,-0.2145,-0.2143,-0.2142,-0.2195,-0.2199,-0.2203,-0.2264,0,0,-0.2215,-0.2216,0,0,0,0,0,0,0,0,-0.2053,-0.206,-0.2115,-0.2115,-0.2115,-0.2149,-0.2149,-0.2201,-0.2148,-0.2135,-0.2143,-0.2141,-0.2183,-0.2188,-0.2201,-0.2267,-0.2269,-0.2215,-0.2217,-0.2219,-0.222,0,0,0,0,0,0,0,-0.205,-0.2058,-0.2138,-0.2115,-0.2116,-0.2111,-0.2116,-0.2159,-0.2169,-0.2136,-0.2134,-0.214,-0.2183,-0.2197,-0.2202,-0.227,-0.2215,-0.2218,-0.2221,-0.2222,-0.2387,-0.2389,0,0,0,0,0,0,-0.2046,-0.2055,-0.2137,-0.214,-0.2079,-0.2114,-0.212,-0.214,-0.2168,-0.2171,-0.2142,-0.2139,-0.2192,-0.2198,-0.2204,-0.2277,-0.2219,-0.2223,-0.2225,-0.2385,-0.2387,-0.2389,0,0,0,0,0,0,-0.2044,-0.2054,-0.2135,-0.2097,-0.2107,-0.2118,-0.2141,-0.2142,-0.2157,-0.2173,-0.2175,-0.2155,-0.219,-0.2198,-0.2249,-0.2279,-0.2224,-0.2228,-0.2382,-0.2386,-0.2388,-0.2425,0,0,0,0,0,0,-0.2041,-0.2053,-0.2076,-0.2098,-0.2109,-0.2179,-0.2143,-0.2145,-0.2163,-0.216,-0.2186,-0.2188,-0.219,-0.2243,-0.2253,-0.2283,-0.2231,-0.238,-0.2384,-0.2387,-0.2421,-0.2429,-0.2436,0,0,0,0,0,-0.2037,-0.2086,-0.2078,-0.2088,-0.2138,-0.218,-0.2187,-0.2187,-0.2166,-0.219,-0.2199,-0.2187,-0.2274,-0.2248,-0.2259,-0.2291,-0.2378,-0.2383,-0.2387,-0.2418,-0.2427,-0.2435,0,0,0,0,0,0,-0.2069,-0.2089,-0.208,-0.2137,-0.2157,-0.2177,-0.2207,-0.2197,-0.2225,-0.2221,-0.222,-0.2226,-0.2278,-0.2289,-0.2261,-0.2352,-0.2323,-0.233,-0.2343,-0.2352,-0.2359,-0.2356,-0.2234,0,0,0,0,0,-0.2082,-0.2114,-0.213,-0.2179,-0.2189,-0.2196,-0.2214,-0.2212,-0.2233,-0.2242,-0.2256,-0.2278,-0.231,-0.2331,-0.2361,-0.2422,-0.2427,-0.2449,-0.2456,-0.2462,-0.2469,-0.2501,-0.2511,-0.2405,-0.2405,-0.2404,0,0,-0.2111,-0.2126,-0.2146,-0.2185,-0.2201,-0.2234,-0.2203,-0.2241,-0.2266,-0.2248,-0.2296,-0.2307,-0.2331,-0.2387,-0.2412,-0.2398,-0.2499,-0.2468,-0.2473,-0.2476,-0.2507,-0.2517,-0.2526,-0.2408,-0.2407,-0.2407,0,0,-0.2181,-0.2195,-0.2237,-0.2252,-0.2275,-0.2279,-0.2289,-0.2309,-0.2315,-0.2363,-0.2351,-0.238,-0.2435,-0.2453,-0.2469,-0.2543,-0.2533,-0.2553,-0.2591,-0.2623,-0.2631,-0.2638,-0.2665,-0.2675,-0.2559,-0.2559,-0.2559,0,-0.2215,-0.2264,-0.226,-0.2297,-0.2315,-0.2299,-0.2341,-0.2357,-0.2389,-0.2402,-0.2385,-0.2453,-0.2468,-0.2527,-0.2545,-0.2558,-0.257,-0.2551,-0.263,-0.2637,-0.2644,-0.267,-0.268,-0.2561,-0.2561,-0.2561,-0.256,0,-0.2304,-0.2338,-0.2369,-0.2399,-0.242,-0.246,-0.2462,-0.2484,-0.2479,-0.2484,-0.2533,-0.255,-0.2583,-0.2597,-0.2593,-0.2655,-0.2646,-0.2629,-0.2601,-0.2657,-0.2681,-0.269,-0.2565,-0.2564,-0.2563,-0.2562,0,0,-0.2398,-0.2423,-0.2435,-0.2448,-0.247,-0.2497,-0.2536,-0.2567,-0.2585,-0.2607,-0.264,-0.2686,-0.267,-0.2689,-0.2686,-0.2714,-0.2771,-0.2694,-0.2695,-0.2709,-0.284,-0.2853,-0.2865,-0.2763,-0.2765,-0.2767,-0.2838,0,-0.247,-0.2537,-0.2534,-0.2597,-0.2628,-0.2612,-0.2645,-0.2663,-0.2669,-0.2697,-0.2703,-0.2736,-0.2713,-0.2724,-0.275,-0.2759,-0.2798,-0.2753,-0.2795,-0.2796,-0.2791,-0.2877,-0.2891,-0.2958,-0.2848,-0.2849,-0.285,0,-0.2564,-0.2587,-0.2653,-0.267,-0.2683,-0.2713,-0.2741,-0.2767,-0.2787,-0.2789,-0.2808,-0.28,-0.284,-0.2808,-0.2862,-0.2832,-0.2848,-0.2855,-0.2858,-0.2863,-0.2828,-0.2886,-0.298,-0.299,-0.2865,-0.2864,-0.2863,0,-0.2626,-0.2674,-0.272,-0.2731,-0.2752,-0.2774,-0.2783,-0.2801,-0.2819,-0.2843,-0.2855,-0.2883,-0.2899,-0.2921,-0.2922,-0.2899,-0.2977,-0.2945,-0.298,-0.298,-0.2999,-0.2998,-0.3098,-0.3007,-0.3007,-0.3007,-0.3007,0,-0.2708,-0.2749,-0.2748,-0.2777,-0.2822,-0.2817,-0.2862,-0.287,-0.2885,-0.2914,-0.2902,-0.293,-0.2928,-0.2956,-0.2957,-0.3002,-0.3009,-0.3012,-0.3012,-0.3014,-0.3014,-0.3026,-0.3022,-0.301,-0.3009,-0.3009,-0.3008,0,-0.2787,-0.2788,-0.2836,-0.2851,-0.2855,-0.2888,-0.2901,-0.2928,-0.2931,-0.2968,-0.2977,-0.2983,-0.3015,-0.3017,-0.3055,-0.3055,-0.311,-0.3104,-0.3103,-0.3103,-0.3138,-0.3135,-0.325,-0.3265,-0.3164,-0.3165,-0.3165,0,-0.284,-0.2871,-0.2888,-0.2906,-0.2917,-0.2947,-0.2964,-0.296,-0.298,-0.3003,-0.3027,-0.3057,-0.3082,-0.3135,-0.3143,-0.3171,-0.3167,-0.3205,-0.3171,-0.3172,-0.3168,-0.3167,-0.317,-0.3213,-0.3214,-0.3215,-0.3215,0,-0.2934,-0.2932,-0.2958,-0.2984,-0.3005,-0.3025,-0.3044,-0.306,-0.3058,-0.308,-0.3112,-0.3131,-0.3169,-0.32,-0.3227,-0.3237,-0.3227,-0.3225,-0.3235,-0.3239,-0.3237,-0.3239,-0.3122,-0.3224,-0.3223,-0.3222,-0.3222,-0.3221,-0.3002,-0.3029,-0.3044,-0.3073,-0.3086,-0.3104,-0.3129,-0.3135,-0.3161,-0.3191,-0.3186,-0.3222,-0.3239,-0.3275,-0.3287,-0.3315,-0.3302,-0.3316,-0.332,-0.3324,-0.3328,-0.3231,-0.332,-0.332,-0.332,-0.3319,-0.3319,0,-0.3096,-0.3104,-0.3131,-0.3157,-0.3179,-0.3165,-0.3184,-0.3204,-0.3236,-0.3252,-0.3276,-0.3312,-0.3342,-0.3351,-0.3379,-0.34,-0.3395,-0.3408,-0.3407,-0.3409,-0.3338,-0.3327,-0.3411,-0.3411,-0.3411,-0.341,-0.341,-0.341,-0.3148,-0.3191,-0.3191,-0.3241,-0.3249,-0.3284,-0.3296,-0.3312,-0.3325,-0.3366,-0.3389,-0.3394,-0.3408,-0.3436,-0.3463,-0.3464,-0.3476,-0.349,-0.349,-0.3424,-0.3414,-0.3406,-0.3396,-0.3493,-0.3493,-0.356,-0.356,-0.3561]},{"header":{"parameterUnit":"m.s-1","parameterCategory":1,"la1":30.2991,"la2":30.254,"lo1":-89.0895,"lo2":-89.0444,"dy":0.0017,"dx":0.0017,"nx":28,"ny":28,"refTime":"2025-03-21T09:00:00:Z","depth":0,"parameterNumber":3,"parameterNumberName":"V-component_of_WINDS"},"data":[0,0,0,0,0,0,0,0,0,0,0,0,0,0,0,0,0,0,0,0,0,0,0,0,0,0,0,0,0,0,0,0,0,0,0,0,0,0,0,0,0,0,0,0,0,0,0,0,0,0,0,0,0,0,0,0,0,0,-3.6597,-3.6599,0,-3.6767,-3.6769,-3.6771,-3.6739,-3.6736,-3.6733,-3.673,-3.6902,-3.6909,-3.6916,0,0,0,0,0,0,0,0,0,0,0,0,0,-3.6242,-3.6249,-3.6597,-3.6599,-3.6601,-3.6767,-3.6769,-3.6771,-3.6739,-3.6736,-3.6732,-3.6729,-3.69,-3.6908,-3.6917,0,0,0,0,0,0,0,0,0,0,0,0,0,-3.6403,-3.6251,-3.6596,-3.6605,-3.6607,-3.6766,-3.6769,-3.6772,-3.674,-3.6736,-3.6731,-3.6727,-3.6897,-3.6907,-3.6918,-3.7078,0,0,-3.6952,-3.6957,0,0,0,0,0,0,0,0,-3.6394,-3.6416,-3.6602,-3.6605,-3.6608,-3.6727,-3.6707,-3.6875,-3.6741,-3.669,-3.673,-3.6725,-3.6847,-3.6862,-3.6904,-3.7086,-3.7094,-3.6953,-3.696,-3.6965,-3.6968,0,0,0,0,0,0,0,-3.6383,-3.6408,-3.6664,-3.6604,-3.6608,-3.66,-3.6618,-3.6739,-3.6792,-3.6694,-3.6692,-3.6713,-3.6848,-3.6893,-3.6908,-3.7096,-3.6953,-3.6963,-3.697,-3.6974,-3.7419,-3.7424,0,0,0,0,0,0,-3.6369,-3.6399,-3.6658,-3.6669,-3.6487,-3.661,-3.663,-3.6693,-3.6791,-3.6801,-3.6716,-3.6711,-3.6877,-3.6895,-3.6914,-3.7108,-3.6965,-3.6975,-3.6982,-3.7414,-3.742,-3.7426,0,0,0,0,0,0,-3.6361,-3.6392,-3.6652,-3.6534,-3.6566,-3.6621,-3.6693,-3.6699,-3.6744,-3.6808,-3.6817,-3.6753,-3.6874,-3.6898,-3.7038,-3.7113,-3.698,-3.699,-3.7408,-3.7416,-3.7423,-3.7497,0,0,0,0,0,0,-3.6351,-3.639,-3.6451,-3.6535,-3.6573,-3.6774,-3.6697,-3.6706,-3.6764,-3.6758,-3.6844,-3.6854,-3.6872,-3.7022,-3.7049,-3.7126,-3.6999,-3.7401,-3.7411,-3.742,-3.7488,-3.7506,-3.7522,0,0,0,0,0,-3.6339,-3.6465,-3.6455,-3.6486,-3.6651,-3.6778,-3.6799,-3.6818,-3.677,-3.6832,-3.6873,-3.6852,-3.7101,-3.7036,-3.7067,-3.7148,-3.7397,-3.7408,-3.742,-3.748,-3.7503,-3.7521,0,0,0,0,0,0,-3.6387,-3.6476,-3.6466,-3.6623,-3.6693,-3.6772,-3.6851,-3.6841,-3.6925,-3.6916,-3.6935,-3.6955,-3.7097,-3.7137,-3.7063,-3.7309,-3.7242,-3.726,-3.7277,-3.7299,-3.7316,-3.7303,-3.7008,0,0,0,0,0,-3.6416,-3.6513,-3.6585,-3.6716,-3.6752,-3.6796,-3.6852,-3.686,-3.6934,-3.6963,-3.7014,-3.7086,-3.718,-3.7242,-3.7332,-3.7494,-3.7512,-3.7565,-3.7582,-3.7595,-3.7611,-3.77,-3.7724,-3.7464,-3.7464,-3.7463,0,0,-3.6477,-3.6537,-3.6597,-3.6728,-3.6783,-3.6882,-3.6821,-3.6928,-3.7002,-3.6979,-3.7115,-3.7155,-3.7236,-3.7387,-3.7457,-3.7425,-3.7687,-3.761,-3.7621,-3.7629,-3.7714,-3.7739,-3.7761,-3.7471,-3.747,-3.7469,0,0,-3.6638,-3.6694,-3.681,-3.6867,-3.6953,-3.6981,-3.7009,-3.7091,-3.7117,-3.7253,-3.7238,-3.7326,-3.7488,-3.7547,-3.7598,-3.7783,-3.7766,-3.7812,-3.79,-3.7986,-3.8007,-3.8025,-3.8091,-3.8115,-3.7827,-3.7827,-3.7827,0,-3.6703,-3.6852,-3.687,-3.698,-3.7038,-3.7023,-3.7141,-3.7195,-3.7305,-3.7346,-3.7309,-3.7513,-3.7566,-3.7732,-3.7777,-3.7819,-3.7851,-3.7802,-3.8003,-3.8021,-3.8038,-3.8102,-3.8127,-3.7832,-3.7832,-3.7831,-3.7831,0,-3.6927,-3.7031,-3.7114,-3.7223,-3.729,-3.7403,-3.7438,-3.7504,-3.7507,-3.7539,-3.7679,-3.7743,-3.7846,-3.7886,-3.7889,-3.8052,-3.803,-3.7998,-3.7931,-3.8068,-3.8128,-3.8152,-3.7839,-3.7837,-3.7836,-3.7835,0,0,-3.7123,-3.7241,-3.7271,-3.732,-3.7414,-3.7494,-3.7607,-3.7709,-3.7765,-3.7842,-3.7937,-3.8075,-3.8046,-3.8104,-3.8114,-3.819,-3.8333,-3.8149,-3.8151,-3.8181,-3.8517,-3.8541,-3.8569,-3.8323,-3.8328,-3.8332,-3.8511,0,-3.7293,-3.7492,-3.7512,-3.769,-3.7787,-3.7775,-3.7872,-3.794,-3.7974,-3.806,-3.8096,-3.8195,-3.8149,-3.8184,-3.8259,-3.83,-3.8401,-3.8287,-3.8411,-3.8415,-3.8391,-3.86,-3.8625,-3.8791,-3.8534,-3.8538,-3.8541,0,-3.7518,-3.7602,-3.779,-3.7872,-3.7913,-3.8,-3.8096,-3.8179,-3.8256,-3.8275,-3.8341,-3.8341,-3.8456,-3.8386,-3.8545,-3.8468,-3.8519,-3.8548,-3.8554,-3.8566,-3.8486,-3.8618,-3.8844,-3.8869,-3.8578,-3.8575,-3.8572,0,-3.7642,-3.7803,-3.7936,-3.7979,-3.8077,-3.8139,-3.8182,-3.8255,-3.8315,-3.8399,-3.8438,-3.8534,-3.8586,-3.866,-3.8686,-3.8632,-3.8845,-3.8776,-3.8864,-3.8863,-3.8909,-3.8905,-3.9147,-3.8942,-3.8942,-3.8941,-3.8941,0,-3.783,-3.7945,-3.7993,-3.8075,-3.8204,-3.8227,-3.8354,-3.8394,-3.8459,-3.8549,-3.8544,-3.8628,-3.8657,-3.8746,-3.8767,-3.8896,-3.892,-3.8938,-3.8942,-3.8939,-3.8936,-3.8973,-3.8962,-3.8948,-3.8947,-3.8945,-3.8944,0,-3.799,-3.8027,-3.8171,-3.8253,-3.8276,-3.8368,-3.8437,-3.8516,-3.8549,-3.8662,-3.869,-3.8741,-3.8846,-3.8879,-3.9005,-3.9019,-3.917,-3.9164,-3.9145,-3.9145,-3.9231,-3.9223,-3.9504,-3.9543,-3.9313,-3.9315,-3.9317,0,-3.8107,-3.8196,-3.8287,-3.8347,-3.8394,-3.849,-3.8553,-3.8578,-3.8643,-3.8738,-3.8806,-3.8909,-3.8994,-3.9161,-3.9209,-3.9306,-3.9302,-3.9394,-3.9316,-3.931,-3.9304,-3.9298,-3.9308,-3.9409,-3.9411,-3.9413,-3.9415,0,-3.8312,-3.8326,-3.8416,-3.8513,-3.8588,-3.8665,-3.8739,-3.8789,-3.8825,-3.8898,-3.9006,-3.9071,-3.9201,-3.9304,-3.9402,-3.9447,-3.9437,-3.9439,-3.9464,-3.9461,-3.9447,-3.9456,-3.9185,-3.9432,-3.943,-3.9429,-3.9428,-3.9427,-3.8454,-3.8533,-3.861,-3.8711,-3.877,-3.884,-3.8919,-3.8962,-3.9052,-3.916,-3.9169,-3.9285,-3.9361,-3.9492,-3.9542,-3.9633,-3.9606,-3.9643,-3.9652,-3.9661,-3.9668,-3.9432,-3.965,-3.965,-3.965,-3.9649,-3.9649,0,-3.8659,-3.8708,-3.8801,-3.8906,-3.8985,-3.897,-3.9052,-3.9119,-3.9222,-3.9293,-3.9377,-3.9501,-3.9601,-3.9658,-3.9758,-3.982,-3.9818,-3.9845,-3.9841,-3.9852,-3.9686,-3.9654,-3.9845,-3.9845,-3.9845,-3.9845,-3.9845,-3.9845,-3.8775,-3.8907,-3.8931,-3.9092,-3.9141,-3.9255,-3.9303,-3.9368,-3.9425,-3.9564,-3.9648,-3.9684,-3.975,-3.9855,-3.9947,-3.9961,-3.9998,-4.0028,-4.0039,-3.9883,-3.9863,-3.9844,-3.9814,-4.0036,-4.0036,-4.0198,-4.0199,-4.02]}]]